EW4819 Weather Reports


time (UTC)temp
C
wind
direction
speed
KPH
gust
KPH
rain 1hr
cm
rain 24hr
cm
rain mn
cm
humidity
%
barometer
mb
20260506032026 10 24 3.2 8.0 0.00 0.00 0.00 80 1011.0
20260506031525 10 21 3.2 9.7 0.00 0.00 0.00 80 1010.9
20260506031026 10 26 3.2 11.3 0.00 0.00 0.00 80 1010.9
20260506030504 10 31 4.8 11.3 0.00 0.00 0.00 80 1010.9
20260506030004 10 32 3.2 8.0 0.00 0.00 0.00 79 1010.9
20260506025523 10 35 3.2 8.0 0.00 0.00 0.00 79 1010.9
20260506025004 10 36 3.2 9.7 0.00 0.00 0.00 79 1010.9
20260506024523 10 35 3.2 9.7 0.00 0.00 0.00 79 1010.9
20260506024002 10 30 3.2 6.4 0.00 0.00 0.00 79 1011.0
20260506023502 10 30 3.2 9.7 0.00 0.00 0.00 79 1010.9
20260506023003 10 44 3.2 11.3 0.00 0.00 0.00 79 1011.1
20260506022502 10 43 3.2 12.9 0.00 0.00 0.00 79 1011.0
20260506022002 10 35 3.2 12.9 0.00 0.00 0.00 79 1011.0
20260506021502 11 33 3.2 9.7 0.00 0.00 0.00 79 1011.0
20260506021002 11 22 3.2 9.7 0.00 0.00 0.00 80 1010.9
20260506020502 11 24 3.2 9.7 0.00 0.00 0.00 80 1010.9
20260506020002 11 42 1.6 6.4 0.00 0.00 0.00 80 1011.0
20260506015502 11 53 1.6 6.4 0.00 0.00 0.00 80 1010.9
20260506015002 11 50 1.6 6.4 0.00 0.00 0.00 80 1010.9
20260506014525 11 37 1.6 6.4 0.00 0.00 0.00 80 1011.0
20260506014002 11 35 3.2 11.3 0.00 0.00 0.00 79 1011.0
20260506013504 11 41 3.2 11.3 0.00 0.00 0.00 79 1010.9
20260506013024 11 33 3.2 8.0 0.00 0.00 0.00 79 1010.9
20260506012503 11 30 3.2 8.0 0.00 0.00 0.00 79 1010.9
20260506012004 11 34 3.2 8.0 0.00 0.00 0.00 79 1010.9
20260506011525 11 37 1.6 6.4 0.00 0.00 0.00 78 1010.9
20260506011003 11 24 1.6 9.7 0.00 0.00 0.00 78 1010.9
20260506010502 11 16 1.6 9.7 0.00 0.00 0.00 78 1010.9
20260506010003 11 4 1.6 4.8 0.00 0.00 0.00 78 1010.9
20260506005502 11 10 1.6 4.8 0.00 0.00 0.00 78 1011.0
20260506005004 11 20 1.6 6.4 0.00 0.00 0.00 78 1011.0
20260506004524 11 27 3.2 8.0 0.00 0.00 0.00 78 1010.9
20260506004003 11 36 1.6 8.0 0.00 0.00 0.00 78 1010.9
20260506003503 11 44 1.6 4.8 0.00 0.00 0.00 78 1010.9
20260506003003 11 40 1.6 8.0 0.00 0.00 0.00 78 1011.0
20260506002502 11 39 1.6 8.0 0.00 0.00 0.00 77 1010.9
20260506002003 11 33 1.6 4.8 0.00 0.00 0.00 77 1010.9
20260506001504 11 355 0.0 3.2 0.00 0.00 0.00 77 1010.9
20260506001004 12 355 0.0 3.2 0.00 0.00 0.00 76 1010.9
20260506000504 12 341 0.0 3.2 0.00 0.00 0.00 76 1010.9
20260506000004 12 336 1.6 3.2 0.00 0.00 0.00 76 1010.9
20260505235525 12 346 0.0 3.2 0.00 0.00 0.00 76 1010.9
20260505235003 12 21 1.6 12.9 0.00 0.00 0.00 76 1010.8
20260505234503 12 32 3.2 12.9 0.00 0.00 0.00 76 1010.9
20260505234003 12 44 1.6 6.4 0.00 0.00 0.00 76 1010.8
20260505233524 12 38 1.6 6.4 0.00 0.00 0.00 76 1010.9
20260505233024 12 27 1.6 6.4 0.00 0.00 0.00 75 1010.9
20260505232503 12 26 1.6 6.4 0.00 0.00 0.00 75 1010.8
20260505232003 12 30 1.6 4.8 0.00 0.00 0.00 75 1010.9
20260505231503 12 20 0.0 4.8 0.00 0.00 0.00 75 1010.8
20260505231003 12 348 0.0 4.8 0.00 0.00 0.00 74 1010.8
20260505230504 12 348 1.6 6.4 0.00 0.00 0.00 74 1010.8
20260505230003 12 344 1.6 6.4 0.00 0.00 0.00 74 1010.8
20260505225503 12 343 1.6 6.4 0.00 0.00 0.00 74 1010.8
20260505225003 12 346 1.6 6.4 0.00 0.00 0.00 74 1010.8
20260505224503 12 336 1.6 6.4 0.00 0.00 0.00 73 1010.7
20260505224003 12 340 1.6 6.4 0.00 0.00 0.00 73 1010.7
20260505223503 12 347 1.6 4.8 0.00 0.00 0.00 73 1010.8
20260505223003 12 336 1.6 6.4 0.00 0.00 0.00 73 1010.8
20260505222503 12 342 1.6 8.0 0.00 0.00 0.00 73 1010.8
20260505222003 12 344 1.6 9.7 0.00 0.00 0.00 73 1010.8
20260505221503 12 342 1.6 9.7 0.00 0.00 0.00 73 1010.7
20260505221003 12 328 1.6 6.4 0.00 0.00 0.00 72 1010.7
20260505220524 12 319 1.6 6.4 0.00 0.00 0.00 72 1010.8
20260505220003 12 314 1.6 6.4 0.00 0.00 0.00 72 1010.8
20260505215524 12 316 1.6 6.4 0.00 0.00 0.00 72 1010.8
20260505215003 12 327 1.6 4.8 0.00 0.00 0.00 72 1010.8
20260505214503 12 327 1.6 6.4 0.00 0.00 0.00 72 1010.8
20260505214003 12 322 1.6 6.4 0.00 0.00 0.00 72 1010.8
20260505213504 12 319 1.6 6.4 0.00 0.00 0.00 72 1010.8
20260505213004 12 317 1.6 6.4 0.00 0.00 0.00 71 1010.8
20260505212504 12 324 1.6 6.4 0.00 0.00 0.00 71 1010.8
20260505212003 12 330 1.6 6.4 0.00 0.00 0.00 71 1010.8
20260505211503 13 322 1.6 4.8 0.00 0.00 0.00 71 1010.7
20260505211003 13 320 0.0 4.8 0.00 0.00 0.00 71 1010.7
20260505210503 13 325 0.0 4.8 0.00 0.00 0.00 71 1010.7
20260505210004 13 328 0.0 4.8 0.00 0.00 0.00 71 1010.6
20260505205504 13 317 1.6 4.8 0.00 0.00 0.00 71 1010.7
20260505205006 13 299 1.6 4.8 0.00 0.00 0.00 71 1010.6
20260505204525 13 301 1.6 4.8 0.00 0.00 0.00 71 1010.6
20260505204004 13 322 1.6 8.0 0.00 0.00 0.00 71 1010.6
20260505203503 13 326 1.6 8.0 0.00 0.00 0.00 70 1010.7
20260505203024 13 322 1.6 4.8 0.00 0.00 0.00 71 1010.6
20260505202503 13 327 1.6 4.8 0.00 0.00 0.00 70 1010.6
20260505202003 13 341 0.0 3.2 0.00 0.00 0.00 71 1010.6
20260505201503 13 8 0.0 1.6 0.00 0.00 0.00 70 1010.6
20260505201003 13 343 0.0 3.2 0.00 0.00 0.00 70 1010.6
20260505200524 13 337 1.6 4.8 0.00 0.00 0.00 69 1010.6
20260505200003 13 335 1.6 6.4 0.00 0.00 0.00 69 1010.5
20260505195503 13 333 1.6 6.4 0.00 0.00 0.00 69 1010.4
20260505195003 13 332 1.6 6.4 0.00 0.00 0.00 69 1010.4
20260505194503 13 342 1.6 6.4 0.00 0.00 0.00 69 1010.3
20260505194003 13 349 0.0 4.8 0.00 0.00 0.00 69 1010.3
20260505193503 13 341 1.6 8.0 0.00 0.00 0.00 68 1010.3
20260505193003 13 343 1.6 8.0 0.00 0.00 0.00 69 1010.3
20260505192503 13 5 1.6 6.4 0.00 0.00 0.00 68 1010.2
20260505192002 13 2 1.6 11.3 0.00 0.00 0.00 68 1010.2
20260505191501 13 352 3.2 11.3 0.00 0.00 0.00 68 1010.2
20260505191001 14 346 1.6 8.0 0.00 0.00 0.00 68 1010.1
20260505190501 14 347 1.6 9.7 0.00 0.00 0.00 67 1010.1
20260505190001 14 340 3.2 9.7 0.00 0.00 0.00 67 1010.1
20260505185501 14 347 3.2 11.3 0.00 0.00 0.00 67 1010.1
20260505185001 14 357 3.2 11.3 0.00 0.00 0.00 67 1010.1
20260505184501 14 355 1.6 4.8 0.00 0.00 0.00 68 1010.1
20260505184001 14 20 1.6 9.7 0.00 0.00 0.00 68 1010.0
20260505183501 14 358 3.2 9.7 0.00 0.00 0.00 68 1009.9
20260505183002 14 340 3.2 9.7 0.00 0.00 0.00 68 1010.0
20260505182502 14 333 1.6 6.4 0.00 0.00 0.00 68 1009.9
20260505182001 14 340 3.2 6.4 0.00 0.00 0.00 67 1009.9
20260505181501 14 358 3.2 8.0 0.00 0.00 0.00 67 1009.9
20260505181022 15 352 3.2 8.0 0.00 0.00 0.00 67 1009.9
20260505180502 15 355 1.6 8.0 0.00 0.00 0.00 68 1009.9
20260505180001 15 15 1.6 4.8 0.00 0.00 0.00 67 1010.0
20260505175502 15 3 1.6 4.8 0.00 0.00 0.00 67 1009.9
20260505175002 15 358 1.6 4.8 0.00 0.00 0.00 68 1010.0
20260505174502 15 8 1.6 6.4 0.00 0.00 0.00 68 1009.9
20260505174023 15 16 3.2 6.4 0.00 0.00 0.00 67 1009.9
20260505173502 15 33 1.6 6.4 0.00 0.00 0.00 67 1010.0
20260505173001 15 64 1.6 4.8 0.00 0.00 0.00 66 1009.9
20260505172522 15 52 1.6 8.0 0.00 0.00 0.00 66 1010.0
20260505172001 15 37 1.6 8.0 0.00 0.00 0.00 66 1010.0
20260505171522 15 356 1.6 6.4 0.00 0.00 0.00 66 1010.0
20260505171001 15 1 3.2 11.3 0.00 0.00 0.00 65 1010.0
20260505170522 15 11 3.2 11.3 0.00 0.00 0.00 66 1010.1
20260505170001 15 3 3.2 8.0 0.00 0.00 0.00 67 1010.1
20260505165501 15 348 1.6 8.0 0.00 0.00 0.00 66 1010.1
20260505165003 15 12 3.2 8.0 0.00 0.00 0.00 66 1010.1
20260505164501 15 18 3.2 8.0 0.00 0.00 0.00 66 1010.1
20260505164001 15 10 1.6 6.4 0.00 0.00 0.00 66 1010.1
20260505163501 15 12 3.2 12.9 0.00 0.00 0.00 66 1010.1
20260505163022 15 4 1.6 12.9 0.00 0.00 0.00 65 1010.1
20260505162501 15 357 0.0 4.8 0.00 0.00 0.00 65 1010.1
20260505162022 16 36 1.6 8.0 0.00 0.00 0.00 66 1010.1
20260505161522 15 31 3.2 9.7 0.00 0.00 0.00 65 1010.1
20260505161001 15 13 3.2 9.7 0.00 0.00 0.00 66 1010.1
20260505160522 15 360 3.2 8.0 0.00 0.00 0.00 66 1010.1
20260505153022 16 20 4.8 14.5 0.00 0.00 0.00 64 1010.2
20260505152501 16 12 4.8 14.5 0.00 0.00 0.00 63 1010.2
20260505152001 16 32 3.2 14.5 0.00 0.00 0.00 63 1010.2
20260505151501 16 24 4.8 14.5 0.00 0.00 0.00 61 1010.2
20260505151022 16 14 4.8 14.5 0.00 0.00 0.00 61 1010.2
20260505150522 16 6 4.8 12.9 0.00 0.00 0.00 61 1010.2
20260505140501 16 27 3.2 12.9 0.00 0.00 0.00 65 1010.4
20260505125024 16 34 6.4 16.1 0.00 0.00 0.00 60 1010.6
20260505124522 16 20 4.8 16.1 0.00 0.00 0.00 62 1010.7
20260505124001 16 15 6.4 16.1 0.00 0.00 0.00 61 1010.7
20260505123501 16 14 4.8 12.9 0.00 0.00 0.00 61 1010.7
20260505123001 17 3 6.4 16.1 0.00 0.00 0.00 60 1010.7
20260505122524 17 355 4.8 16.1 0.00 0.00 0.00 60 1010.6
20260505122024 17 25 4.8 12.9 0.00 0.00 0.00 59 1010.5
20260505121502 17 45 6.4 14.5 0.00 0.00 0.00 59 1010.6
20260505121003 17 36 6.4 19.3 0.00 0.00 0.00 59 1010.7
20260505120502 17 27 6.4 19.3 0.00 0.00 0.00 61 1010.7
20260505120001 16 25 6.4 16.1 0.00 0.00 0.00 64 1010.7
20260505115524 16 25 6.4 17.7 0.00 0.00 0.00 63 1010.8
20260505115002 16 27 6.4 17.7 0.00 0.00 0.00 63 1010.9
20260505114502 16 17 6.4 14.5 0.00 0.00 0.00 63 1010.8
20260505114002 16 8 6.4 19.3 0.00 0.00 0.00 63 1010.8
20260505113523 16 7 6.4 19.3 0.00 0.00 0.00 63 1010.8
20260505113002 15 11 4.8 17.7 0.00 0.00 0.00 67 1010.9
20260505112524 16 10 6.4 16.1 0.00 0.00 0.00 64 1011.0
20260505112003 16 14 8.0 19.3 0.00 0.00 0.00 65 1011.0
20260505111502 16 24 8.0 19.3 0.00 0.00 0.00 64 1011.0
20260505111002 16 18 6.4 17.7 0.00 0.00 0.00 64 1011.1
20260505110501 15 7 6.4 17.7 0.00 0.00 0.00 70 1011.1
20260505102002 15 354 6.4 14.5 0.00 0.00 0.00 73 1011.3
20260505101502 14 5 4.8 12.9 0.00 0.00 0.00 75 1011.3
20260505101002 14 346 4.8 14.5 0.00 0.00 0.00 76 1011.3
20260505100502 14 338 4.8 14.5 0.00 0.00 0.00 74 1011.3
20260505100002 15 349 4.8 16.1 0.00 0.00 0.00 73 1011.3
20260505095502 15 355 6.4 22.5 0.00 0.00 0.00 74 1011.3
20260505095001 15 14 6.4 22.5 0.00 0.00 0.00 73 1011.4
20260505094502 15 39 4.8 16.1 0.00 0.00 0.00 75 1011.5
20260505094023 14 45 6.4 16.1 0.00 0.00 0.00 76 1011.5
20260505093502 13 41 6.4 16.1 0.00 0.00 0.00 78 1011.5
20260505093002 13 39 6.4 16.1 0.00 0.00 0.00 80 1011.6
20260505092502 13 22 4.8 12.9 0.00 0.00 0.00 80 1011.6
20260505092002 13 15 4.8 12.9 0.00 0.00 0.00 81 1011.7
20260505091502 13 15 4.8 11.3 0.00 0.00 0.00 80 1011.8
20260505091003 13 3 4.8 9.7 0.00 0.00 0.00 80 1011.7
20260505090502 13 6 4.8 9.7 0.00 0.00 0.00 80 1011.7
20260505090025 13 359 4.8 9.7 0.00 0.00 0.00 80 1011.7
20260505085503 13 357 4.8 14.5 0.00 0.00 0.00 81 1011.8
20260505085002 13 6 3.2 14.5 0.00 0.00 0.00 81 1011.8
20260505084502 13 343 3.2 12.9 0.00 0.00 0.00 81 1011.8
20260505084004 13 338 4.8 17.7 0.00 0.00 0.00 80 1011.8
20260505083524 13 342 4.8 17.7 0.00 0.00 0.00 80 1011.8
20260505083003 13 343 3.2 9.7 0.00 0.00 0.00 80 1011.8
20260505082502 13 355 3.2 12.9 0.00 0.00 0.00 80 1011.8
20260505082003 13 13 3.2 12.9 0.00 0.00 0.00 80 1011.7
20260505081502 13 4 4.8 12.9 0.00 0.00 0.00 81 1011.7
20260505081023 13 355 4.8 12.9 0.00 0.00 0.00 82 1011.8
20260505080502 13 12 4.8 12.9 0.00 0.00 0.00 82 1011.9
20260505080002 12 24 4.8 12.9 0.00 0.00 0.00 82 1011.8
20260505075502 13 16 4.8 11.3 0.00 0.00 0.00 81 1011.8
20260505075002 13 16 3.2 9.7 0.00 0.00 0.00 82 1011.9
20260505074502 12 21 3.2 9.7 0.00 0.00 0.00 84 1011.8
20260505074002 12 16 3.2 11.3 0.00 0.00 0.00 85 1011.8
20260505073502 12 19 4.8 11.3 0.00 0.00 0.00 86 1011.7
20260505073002 12 359 3.2 12.9 0.00 0.00 0.00 87 1011.7
20260505072503 11 346 3.2 12.9 0.00 0.00 0.00 88 1011.6
20260505072002 11 349 3.2 12.9 0.00 0.00 0.00 89 1011.7
20260505071503 11 346 3.2 9.7 0.00 0.00 0.00 90 1011.8
20260505071002 11 356 3.2 9.7 0.00 0.00 0.00 90 1011.8
20260505070502 10 10 3.2 6.4 0.00 0.00 0.00 90 1011.8
20260505070002 10 6 1.6 6.4 0.00 0.00 0.00 91 1011.9
20260505065502 10 2 1.6 9.7 0.00 0.00 0.00 90 1011.9
20260505065023 10 2 1.6 9.7 0.00 0.00 0.00 91 1011.8
20260505064503 10 357 1.6 6.4 0.00 0.00 0.00 91 1011.8
20260505064002 10 358 1.6 6.4 0.00 0.00 0.00 91 1011.8
20260505063502 10 4 1.6 4.8 0.00 0.00 0.00 91 1012.0
20260505063023 10 7 1.6 6.4 0.00 0.00 0.00 91 1012.0
20260505062502 10 23 1.6 6.4 0.00 0.00 0.00 91 1011.9
20260505062023 10 24 1.6 4.8 0.00 0.00 0.00 91 1011.9
20260505061502 10 5 1.6 8.0 0.00 0.00 0.00 91 1011.8
20260505061002 10 353 1.6 8.0 0.00 0.00 0.00 91 1011.8
20260505060502 10 347 1.6 4.8 0.00 0.00 0.00 91 1011.8
20260505060002 10 17 1.6 8.0 0.00 0.00 0.00 91 1011.9
20260505055502 10 15 1.6 8.0 0.00 0.00 0.00 90 1011.9
20260505055002 10 1 0.0 4.8 0.00 0.00 0.00 91 1011.9
20260505054502 10 11 0.0 4.8 0.00 0.00 0.00 90 1011.9
20260505054002 10 34 1.6 8.0 0.00 0.00 0.00 91 1011.9
20260505053503 10 48 0.0 8.0 0.00 0.00 0.00 91 1011.9
20260505053003 10 31 0.0 4.8 0.00 0.00 0.00 90 1011.9
20260505052503 10 14 0.0 4.8 0.00 0.00 0.00 90 1011.8
20260505052003 10 10 0.0 4.8 0.00 0.00 0.00 90 1011.7
20260505051505 10 12 1.6 6.4 0.00 0.00 0.00 90 1011.7
20260505051004 10 11 1.6 6.4 0.00 0.00 0.00 90 1011.7
20260505050503 10 350 0.0 6.4 0.00 0.00 0.00 90 1011.7
20260505041502 10 2 1.6 4.8 0.00 0.00 0.00 90 1011.8
20260505041002 11 3 1.6 4.8 0.00 0.00 0.00 90 1011.8
20260505040523 11 356 0.0 4.8 0.00 0.00 0.00 90 1011.9
20260505040002 11 355 0.0 3.2 0.00 0.00 0.00 90 1011.9
20260505035502 11 357 0.0 3.2 0.00 0.00 0.00 90 1011.9
20260505035002 11 5 0.0 3.2 0.00 0.00 0.00 90 1011.9
20260505034502 11 334 0.0 3.2 0.00 0.00 0.00 90 1011.9
20260505034002 11 335 0.0 3.2 0.00 0.00 0.00 90 1011.9
20260505033502 11 343 0.0 3.2 0.00 0.00 0.00 90 1012.0
20260505033002 11 346 0.0 4.8 0.00 0.00 0.00 90 1011.9
20260505032502 11 351 0.0 4.8 0.00 0.00 0.00 90 1012.0